Location: Unspecified
(33.2407°S, 0.0000°E)
Time: 04:10:17
(UTC+00:00)

Envisat - Pass Details

Date: 21 May 2019
Orbit: 764 x 766 km, 98.1° (Epoch: 24 June)

Event Time Altitude Azimuth Distance (km) Brightness Sun altitude
Exits shadow 19:37:39 43° 318° (NW) 1,079 3.9 -31.6°
Drops below altitude 10° 19:41:08 10° 336° (NNW) 2,303 5.7 -32.4°
Sets 19:43:26 0° 338° (NNW) 3,222 6.5 -32.8°
